Weather History for Rochester, NY

Change the Weather History Date:

Wednesday, October 26, 2011

  Actual Average Record
Temperature  
Mean Temperature 46 °F 47 °F  
Max Temperature 49 °F 56 °F 79 °F (1963)
Min Temperature 43 °F 39 °F 24 °F (1887)
Degree Days  
Heating Degree Days 19 18  
Month to date heating degree days 280 359  
Since 1 July heating degree days 375 540  
Cooling Degree Days 0 0  
Month to date cooling degree days 1 0  
Year to date cooling degree days 695 534  
Moisture  
Dew Point 45 °F    
Average Humidity 91    
Maximum Humidity 93    
Minimum Humidity 89    
Precipitation  
Precipitation 0.60 in 0.09 in 1.74 in (1872)
Month to date precipitation 5.10 2.29  
Year to date precipitation 35.41 28.27  
Snow  
Snow 0.00 in 0.00 in 1.00 in (1934)
Month to date snowfall 0.0 0.0  
Since 1 July snowfall 0.0 0.0  
Since 1 September snowfall 0.0 0.0  
Snow Depth 0.00 in    
Sea Level Pressure  
Sea Level Pressure 29.83 in    
Wind  
Wind Speed 8 mph (ENE)    
Max Wind Speed 18 mph    
Max Gust Speed 24 mph    
Visibility 4 miles    
Events Rain    
T = Trace of Precipitation, MM = Missing Value Source: NWS Daily Summary

Daily Weather History Graph

Daily Weather History Graph

Search for Another Location

Airport:

Trip Planner

Search our weather history database for the weather conditions in past years. The results will help you decide how hot, cold, wet, or windy it might be!

Date:

Astronomy

Oct. 26, 2011 Rise Set
Actual Time 7:37 AM EDT 6:11 PM EDT
Civil Twilight 7:08 AM EDT 6:40 PM EDT
Nautical Twilight 6:34 AM EDT 7:13 PM EDT
Astronomical Twilight 6:02 AM EDT 7:46 PM EDT
Moon 7:23 AM EDT (10/26) 5:50 PM EDT (10/26)
Length of Visible Light 11h 32m
Length of Day
10h 33m
Waning Crescent, 0% of the Moon is Illuminated
Oct 26
Waning Crescent
Oct 26
New
Nov 2
First Quarter
Nov 10
Full
Nov 18
Last Quarter

Hourly Weather History & Observations

Time (EDT) Temp. Windchill Dew Point Humidity Pressure Visibility Wind Dir Wind Speed Gust Speed Precip Events Conditions
12:54 AM 46.0 °F 43.1 °F 44.1 °F 93% 30.03 in 5.0 mi SE 5.8 mph - 0.03 in Rain Light Rain
1:54 AM 46.0 °F 43.1 °F 44.1 °F 93% 29.98 in 5.0 mi ESE 5.8 mph - 0.06 in Rain Rain
2:54 AM 45.0 °F 40.1 °F 43.0 °F 93% 29.94 in 9.0 mi East 9.2 mph - 0.10 in Rain Light Rain
3:17 AM 44.6 °F 40.7 °F 42.8 °F 93% 29.91 in 10.0 mi East 6.9 mph - 0.00 in   Overcast
3:54 AM 45.0 °F 41.2 °F 43.0 °F 93% 29.93 in 8.0 mi ESE 6.9 mph - 0.00 in Rain Light Rain
4:54 AM 45.0 °F 40.6 °F 43.0 °F 93% 29.90 in 8.0 mi ESE 8.1 mph - 0.04 in Rain Light Rain
5:54 AM 46.0 °F 42.5 °F 44.1 °F 93% 29.86 in 5.0 mi ESE 6.9 mph - 0.03 in Rain Light Rain
6:54 AM 46.0 °F 44.8 °F 44.1 °F 93% 29.86 in 4.0 mi ESE 3.5 mph - 0.01 in   Light Drizzle
7:38 AM 46.4 °F 45.2 °F 44.6 °F 93% 29.84 in 5.0 mi SSE 3.5 mph - 0.01 in   Light Drizzle
7:54 AM 46.9 °F - 45.0 °F 93% 29.84 in 3.0 mi SE 3.5 mph - 0.02 in   Light Drizzle
7:58 AM 46.4 °F 45.2 °F 44.6 °F 93% 29.83 in 2.0 mi SE 3.5 mph - 0.00 in   Light Drizzle
8:54 AM 48.0 °F - 46.0 °F 93% 29.84 in 2.0 mi Calm Calm - 0.00 in   Light Drizzle
9:06 AM 48.2 °F - 46.4 °F 93% 29.83 in 2.0 mi Calm Calm - 0.00 in   Light Drizzle
9:52 AM 48.2 °F - 46.4 °F 93% 29.82 in 1.0 mi ENE 4.6 mph - 0.01 in Rain Light Rain
9:54 AM 48.0 °F - 46.9 °F 96% 29.83 in 1.0 mi NE 4.6 mph - 0.01 in Rain Light Rain
10:54 AM 48.0 °F - 46.0 °F 93% 29.84 in 1.8 mi NE 5.8 mph - 0.01 in   Light Drizzle
11:54 AM 48.0 °F - 46.9 °F 96% 29.81 in 1.5 mi East 5.8 mph - 0.02 in Rain Light Rain
12:54 PM 48.9 °F - 46.9 °F 93% 29.79 in 1.8 mi ENE 5.8 mph - 0.01 in   Light Drizzle
1:18 PM 48.2 °F - 46.4 °F 93% 29.79 in 2.0 mi NE 5.8 mph - 0.00 in   Light Drizzle
1:37 PM 48.2 °F - 46.4 °F 93% 29.78 in 1.2 mi NE 8.1 mph - 0.01 in Rain Light Rain
1:54 PM 48.9 °F - 46.9 °F 93% 29.77 in 1.2 mi NE 10.4 mph - 0.01 in   Light Drizzle
2:54 PM 48.0 °F - 46.9 °F 96% 29.78 in 1.2 mi ENE 6.9 mph - 0.01 in   Light Drizzle
3:48 PM 48.2 °F - 46.4 °F 93% 29.76 in 3.0 mi NE 10.4 mph - 0.00 in   Light Drizzle
3:54 PM 48.0 °F - 46.0 °F 93% 29.78 in 3.0 mi NE 10.4 mph - 0.00 in   Light Drizzle
4:16 PM 48.2 °F - 46.4 °F 93% 29.78 in 9.0 mi ENE 8.1 mph - 0.00 in   Overcast
4:27 PM 48.2 °F - 46.4 °F 93% 29.78 in 2.0 mi ENE 6.9 mph - 0.00 in   Overcast
4:54 PM 48.0 °F - 46.0 °F 93% 29.79 in 1.5 mi NE 11.5 mph - 0.01 in   Light Drizzle
5:54 PM 46.4 °F 40.7 °F 44.6 °F 93% 29.79 in 2.0 mi NE 12.7 mph - N/A   Light Drizzle
5:59 PM 46.4 °F 41.1 °F 44.6 °F 93% 29.79 in 3.0 mi NE 11.5 mph - 0.00 in   Light Drizzle
6:54 PM 46.0 °F 39.6 °F 44.1 °F 93% 29.82 in 2.5 mi NE 15.0 mph - 0.01 in   Light Drizzle
7:25 PM 44.6 °F 38.1 °F 42.8 °F 93% 29.81 in 3.0 mi NE 13.8 mph 21.9 mph 0.02 in Rain Light Rain
7:54 PM 45.0 °F 38.9 °F 43.0 °F 93% 29.83 in 4.0 mi NE 12.7 mph - 0.04 in Rain Rain
8:54 PM 44.1 °F 37.7 °F 42.1 °F 93% 29.82 in 7.0 mi NE 12.7 mph - 0.04 in Rain Light Rain
9:54 PM 44.1 °F 38.1 °F 41.0 °F 89% 29.83 in 8.0 mi NE 11.5 mph - 0.01 in Rain Light Rain
10:54 PM 44.1 °F 39.5 °F 41.0 °F 89% 29.84 in 7.0 mi NE 8.1 mph - 0.07 in Rain Rain
11:39 PM 42.8 °F 37.0 °F 39.2 °F 87% 29.81 in 10.0 mi NE 10.4 mph - 0.03 in Rain Light Rain
11:54 PM 43.0 °F 36.4 °F 39.9 °F 89% 29.83 in 10.0 mi NE 12.7 mph - 0.03 in Rain Light Rain